Time,TemperatureF,DewpointF,PressureIn,WindDirection,WindDirectionDegrees,WindSpeedMPH,WindSpeedGustMPH,Humidity,HourlyPrecipIn,Conditions,Clouds,dailyrainin,SoftwareType,DateUTC
2017-10-21 00:02:00,55.4,51.9,30.22,SSW,212,0.0,0.0,88,0.00,,---,0.01,VWS V15.00,2017-10-21 04:02:00,
2017-10-21 00:07:00,55.3,51.8,30.22,SSW,212,0.0,0.0,88,0.00,,---,0.00,VWS V15.00,2017-10-21 04:07:00,
2017-10-21 00:12:00,55.3,52.1,30.22,SSW,212,0.0,0.0,89,0.00,,---,0.00,VWS V15.00,2017-10-21 04:12:00,
2017-10-21 00:17:00,55.1,51.6,30.22,SSW,212,0.0,0.0,88,0.00,,---,0.00,VWS V15.00,2017-10-21 04:17:00,
2017-10-21 00:22:00,55.0,51.8,30.22,SSW,212,0.0,0.0,89,0.00,,---,0.00,VWS V15.00,2017-10-21 04:22:00,
2017-10-21 00:27:00,54.8,51.6,30.22,SSW,212,0.0,0.0,89,0.00,,---,0.00,VWS V15.00,2017-10-21 04:27:00,
2017-10-21 00:32:00,54.7,51.5,30.22,SSW,212,0.0,0.0,89,0.00,,---,0.00,VWS V15.00,2017-10-21 04:32:00,
2017-10-21 00:37:00,54.6,51.4,30.22,SSW,212,0.0,0.0,89,0.00,,---,0.00,VWS V15.00,2017-10-21 04:37:00,
2017-10-21 00:42:00,54.4,51.5,30.22,SSW,212,0.0,0.0,90,0.00,,---,0.00,VWS V15.00,2017-10-21 04:42:00,
2017-10-21 00:47:00,54.3,51.4,30.22,SSW,212,0.0,0.0,90,0.00,,---,0.00,VWS V15.00,2017-10-21 04:47:00,
2017-10-21 00:52:00,54.2,51.3,30.22,SSW,212,0.0,0.0,90,0.00,,---,0.00,VWS V15.00,2017-10-21 04:52:00,
2017-10-21 00:57:00,54.1,51.2,30.22,SSW,212,0.0,0.0,90,0.00,,---,0.00,VWS V15.00,2017-10-21 04:57:00,
2017-10-21 01:02:00,54.1,51.2,30.22,SSW,212,0.0,0.0,90,0.00,,---,0.00,VWS V15.00,2017-10-21 05:02:00,
2017-10-21 01:07:00,54.1,51.5,30.22,SSW,212,0.0,0.0,91,0.00,,---,0.00,VWS V15.00,2017-10-21 05:07:00,
2017-10-21 01:12:00,54.1,51.5,30.22,SSW,212,0.0,0.0,91,0.00,,---,0.00,VWS V15.00,2017-10-21 05:12:00,
2017-10-21 01:17:00,54.2,51.6,30.22,SSW,212,0.0,0.0,91,0.00,,---,0.00,VWS V15.00,2017-10-21 05:17:00,
2017-10-21 01:22:00,54.1,51.2,30.22,SSW,212,0.0,0.0,90,0.00,,---,0.00,VWS V15.00,2017-10-21 05:22:00,
2017-10-21 01:27:00,54.0,51.4,30.22,SSW,212,0.0,0.0,91,0.00,,---,0.00,VWS V15.00,2017-10-21 05:27:00,
2017-10-21 01:32:00,54.0,51.4,30.22,SSW,212,0.0,0.0,91,0.00,,---,0.00,VWS V15.00,2017-10-21 05:32:00,
2017-10-21 01:37:00,54.0,51.4,30.22,SSW,212,0.0,0.0,91,0.00,,---,0.00,VWS V15.00,2017-10-21 05:37:00,
2017-10-21 01:42:00,54.1,51.5,30.22,SSW,212,0.0,0.0,91,0.00,,---,0.00,VWS V15.00,2017-10-21 05:42:00,
2017-10-21 01:47:00,54.1,51.5,30.22,SSW,212,0.0,0.0,91,0.00,,---,0.00,VWS V15.00,2017-10-21 05:47:00,
2017-10-21 01:52:00,54.1,51.5,30.22,SSW,212,0.0,0.0,91,0.00,,---,0.00,VWS V15.00,2017-10-21 05:52:00,
2017-10-21 01:57:00,54.0,51.4,30.22,SSW,212,0.0,0.0,91,0.00,,---,0.00,VWS V15.00,2017-10-21 05:57:00,
2017-10-21 02:02:00,53.8,51.2,30.22,SSW,212,0.0,0.0,91,0.00,,---,0.00,VWS V15.00,2017-10-21 06:02:00,
2017-10-21 02:07:00,53.7,51.1,30.22,SSW,212,0.0,0.0,91,0.00,,---,0.00,VWS V15.00,2017-10-21 06:07:00,
2017-10-21 02:12:00,53.7,51.1,30.22,SSW,212,0.0,0.0,91,0.00,,---,0.00,VWS V15.00,2017-10-21 06:12:00,
2017-10-21 02:17:00,53.6,51.0,30.22,SSW,212,0.0,0.0,91,0.00,,---,0.00,VWS V15.00,2017-10-21 06:17:00,
2017-10-21 02:22:00,53.6,51.0,30.21,SSW,212,0.0,0.0,91,0.00,,---,0.00,VWS V15.00,2017-10-21 06:22:00,
2017-10-21 02:27:00,53.5,50.9,30.21,SSW,212,0.0,0.0,91,0.00,,---,0.00,VWS V15.00,2017-10-21 06:27:00,
2017-10-21 02:32:00,53.4,50.8,30.21,SSW,212,0.0,0.0,91,0.00,,---,0.00,VWS V15.00,2017-10-21 06:32:00,
2017-10-21 02:37:00,53.3,51.0,30.21,SSW,212,0.0,0.0,92,0.00,,---,0.00,VWS V15.00,2017-10-21 06:37:00,
2017-10-21 02:42:00,53.4,51.1,30.21,SSW,212,0.0,0.0,92,0.00,,---,0.00,VWS V15.00,2017-10-21 06:42:00,
2017-10-21 02:47:00,53.5,51.2,30.21,SSW,212,0.0,0.0,92,0.00,,---,0.00,VWS V15.00,2017-10-21 06:47:00,
2017-10-21 02:52:00,53.7,51.4,30.21,South,187,0.0,3.0,92,0.00,,---,0.00,VWS V15.00,2017-10-21 06:52:00,
2017-10-21 02:57:00,53.8,51.5,30.21,South,188,0.0,3.0,92,0.00,,---,0.00,VWS V15.00,2017-10-21 06:57:00,
2017-10-21 03:02:00,53.9,51.6,30.21,South,188,0.0,3.0,92,0.00,,---,0.00,VWS V15.00,2017-10-21 07:02:00,
2017-10-21 03:07:00,53.9,51.6,30.21,South,187,0.0,0.0,92,0.00,,---,0.00,VWS V15.00,2017-10-21 07:07:00,
2017-10-21 03:12:00,54.2,51.9,30.21,South,187,0.0,2.0,92,0.00,,---,0.00,VWS V15.00,2017-10-21 07:12:00,
2017-10-21 03:17:00,54.4,51.8,30.21,South,187,0.0,2.0,91,0.00,,---,0.00,VWS V15.00,2017-10-21 07:17:00,
2017-10-21 03:22:00,54.6,52.0,30.21,South,187,0.0,2.0,91,0.00,,---,0.00,VWS V15.00,2017-10-21 07:22:00,
2017-10-21 03:27:00,54.6,52.0,30.21,South,187,0.0,2.0,91,0.00,,---,0.00,VWS V15.00,2017-10-21 07:27:00,
2017-10-21 03:37:00,55.5,52.3,30.21,SSE,157,1.0,1.0,89,0.00,,---,0.00,VWS V15.00,2017-10-21 07:37:00,
2017-10-21 03:47:00,57.1,53.0,30.21,SE,129,1.0,4.0,86,0.00,,---,0.00,VWS V15.00,2017-10-21 07:47:00,
2017-10-21 03:52:00,57.5,53.0,30.21,SE,140,0.0,4.0,85,0.00,,---,0.00,VWS V15.00,2017-10-21 07:52:00,
2017-10-21 03:57:00,57.5,53.0,30.21,SE,142,2.0,4.0,85,0.00,,---,0.00,VWS V15.00,2017-10-21 07:57:00,
2017-10-21 04:02:00,57.4,52.9,30.21,SE,142,0.0,4.0,85,0.00,,---,0.00,VWS V15.00,2017-10-21 08:02:00,
2017-10-21 04:07:00,57.3,52.8,30.20,SE,142,0.0,1.0,85,0.00,,---,0.00,VWS V15.00,2017-10-21 08:07:00,
2017-10-21 04:12:00,57.3,52.8,30.21,SE,142,0.0,3.0,85,0.00,,---,0.00,VWS V15.00,2017-10-21 08:12:00,
2017-10-21 04:17:00,57.1,52.6,30.21,SE,142,0.0,3.0,85,0.00,,---,0.00,VWS V15.00,2017-10-21 08:17:00,
2017-10-21 04:22:00,56.8,52.3,30.21,SE,142,0.0,3.0,85,0.00,,---,0.00,VWS V15.00,2017-10-21 08:22:00,
2017-10-21 04:27:00,56.3,52.2,30.21,SE,142,0.0,3.0,86,0.00,,---,0.00,VWS V15.00,2017-10-21 08:27:00,
2017-10-21 04:32:00,55.9,51.8,30.21,SE,142,0.0,3.0,86,0.00,,---,0.00,VWS V15.00,2017-10-21 08:32:00,
2017-10-21 04:37:00,55.4,51.6,30.21,SE,142,0.0,0.0,87,0.00,,---,0.00,VWS V15.00,2017-10-21 08:37:00,
2017-10-21 04:42:00,55.2,51.7,30.21,SE,142,0.0,0.0,88,0.00,,---,0.00,VWS V15.00,2017-10-21 08:42:00,
2017-10-21 04:47:00,54.8,51.3,30.21,SE,142,0.0,0.0,88,0.00,,---,0.00,VWS V15.00,2017-10-21 08:47:00,
2017-10-21 04:52:00,54.5,51.3,30.21,SE,142,0.0,0.0,89,0.00,,---,0.00,VWS V15.00,2017-10-21 08:52:00,
2017-10-21 04:57:00,54.2,51.0,30.21,SE,142,0.0,0.0,89,0.00,,---,0.00,VWS V15.00,2017-10-21 08:57:00,
2017-10-21 05:02:00,53.9,51.0,30.21,SE,142,0.0,0.0,90,0.00,,---,0.00,VWS V15.00,2017-10-21 09:02:00,
2017-10-21 05:07:00,53.7,50.8,30.21,SE,142,0.0,0.0,90,0.00,,---,0.00,VWS V15.00,2017-10-21 09:07:00,
2017-10-21 05:12:00,53.5,50.9,30.21,SE,142,0.0,0.0,91,0.00,,---,0.00,VWS V15.00,2017-10-21 09:12:00,
2017-10-21 05:17:00,53.3,50.7,30.21,SE,142,0.0,0.0,91,0.00,,---,0.00,VWS V15.00,2017-10-21 09:17:00,
2017-10-21 05:22:00,53.2,50.7,30.21,SE,142,0.0,0.0,91,0.00,,---,0.00,VWS V15.00,2017-10-21 09:22:00,
2017-10-21 05:27:00,53.1,50.5,30.21,SE,142,0.0,0.0,91,0.00,,---,0.00,VWS V15.00,2017-10-21 09:27:00,
2017-10-21 05:32:00,52.9,50.6,30.21,SE,142,0.0,0.0,92,0.00,,---,0.00,VWS V15.00,2017-10-21 09:32:00,
2017-10-21 05:37:00,52.8,50.5,30.21,SE,142,0.0,0.0,92,0.00,,---,0.00,VWS V15.00,2017-10-21 09:37:00,
2017-10-21 05:42:00,52.7,50.5,30.21,SE,142,0.0,0.0,92,0.00,,---,0.00,VWS V15.00,2017-10-21 09:42:00,
2017-10-21 05:47:00,52.6,50.3,30.21,SE,142,0.0,0.0,92,0.00,,---,0.00,VWS V15.00,2017-10-21 09:47:00,
2017-10-21 05:52:00,52.5,50.2,30.21,SE,142,0.0,0.0,92,0.00,,---,0.00,VWS V15.00,2017-10-21 09:52:00,
2017-10-21 05:57:00,52.4,50.4,30.22,SE,142,0.0,0.0,93,0.00,,---,0.00,VWS V15.00,2017-10-21 09:57:00,
2017-10-21 06:02:00,52.3,50.3,30.22,SE,142,0.0,0.0,93,0.00,,---,0.00,VWS V15.00,2017-10-21 10:02:00,
2017-10-21 06:07:00,52.2,50.2,30.22,SE,142,0.0,0.0,93,0.00,,---,0.00,VWS V15.00,2017-10-21 10:07:00,
2017-10-21 06:12:00,52.2,50.2,30.22,SE,142,0.0,0.0,93,0.00,,---,0.00,VWS V15.00,2017-10-21 10:12:00,
2017-10-21 06:17:00,52.2,50.2,30.22,SE,142,0.0,0.0,93,0.00,,---,0.00,VWS V15.00,2017-10-21 10:17:00,
2017-10-21 06:22:00,52.2,50.2,30.22,SE,142,0.0,0.0,93,0.00,,---,0.00,VWS V15.00,2017-10-21 10:22:00,
2017-10-21 06:27:00,52.2,50.2,30.23,SE,142,0.0,0.0,93,0.00,,---,0.00,VWS V15.00,2017-10-21 10:27:00,
2017-10-21 06:32:00,52.2,50.5,30.23,SE,142,0.0,0.0,94,0.00,,---,0.00,VWS V15.00,2017-10-21 10:32:00,
2017-10-21 06:37:00,52.2,50.5,30.23,SE,142,0.0,0.0,94,0.00,,---,0.00,VWS V15.00,2017-10-21 10:37:00,
2017-10-21 06:42:00,52.1,50.1,30.23,SE,142,0.0,0.0,93,0.00,,---,0.00,VWS V15.00,2017-10-21 10:42:00,
2017-10-21 06:47:00,52.0,50.0,30.23,SE,142,0.0,0.0,93,0.00,,---,0.00,VWS V15.00,2017-10-21 10:47:00,
2017-10-21 06:52:00,51.9,49.9,30.24,SE,142,0.0,0.0,93,0.00,,---,0.00,VWS V15.00,2017-10-21 10:52:00,
2017-10-21 06:57:00,51.9,50.2,30.24,SE,142,0.0,0.0,94,0.00,,---,0.00,VWS V15.00,2017-10-21 10:57:00,
2017-10-21 07:02:00,51.9,50.2,30.24,SE,142,0.0,0.0,94,0.00,,---,0.00,VWS V15.00,2017-10-21 11:02:00,
2017-10-21 07:07:00,51.9,50.2,30.24,SE,142,0.0,0.0,94,0.00,,---,0.00,VWS V15.00,2017-10-21 11:07:00,
2017-10-21 07:12:00,51.8,50.1,30.25,SE,142,0.0,0.0,94,0.00,,---,0.00,VWS V15.00,2017-10-21 11:12:00,
2017-10-21 07:17:00,51.7,50.0,30.24,SE,142,0.0,0.0,94,0.00,,---,0.00,VWS V15.00,2017-10-21 11:17:00,
2017-10-21 07:22:00,51.7,50.0,30.24,SE,142,0.0,0.0,94,0.00,,---,0.00,VWS V15.00,2017-10-21 11:22:00,
2017-10-21 07:27:00,51.6,49.9,30.24,SE,142,0.0,0.0,94,0.00,,---,0.00,VWS V15.00,2017-10-21 11:27:00,
2017-10-21 07:32:00,51.6,49.9,30.24,SE,142,0.0,0.0,94,0.00,,---,0.00,VWS V15.00,2017-10-21 11:32:00,
2017-10-21 07:37:00,51.5,49.8,30.24,SE,142,0.0,0.0,94,0.00,,---,0.00,VWS V15.00,2017-10-21 11:37:00,
2017-10-21 07:42:00,51.4,49.7,30.24,SE,142,0.0,0.0,94,0.00,,---,0.00,VWS V15.00,2017-10-21 11:42:00,
2017-10-21 07:47:00,51.4,49.7,30.24,SE,142,0.0,0.0,94,0.00,,---,0.00,VWS V15.00,2017-10-21 11:47:00,
2017-10-21 07:52:00,51.4,49.7,30.24,SE,142,0.0,0.0,94,0.01,,---,0.01,VWS V15.00,2017-10-21 11:52:00,
2017-10-21 07:57:00,51.5,49.8,30.24,SE,142,0.0,0.0,94,0.01,,---,0.01,VWS V15.00,2017-10-21 11:57:00,
2017-10-21 08:02:00,51.4,49.7,30.24,SE,142,0.0,0.0,94,0.01,,---,0.01,VWS V15.00,2017-10-21 12:02:00,
2017-10-21 08:07:00,51.3,49.6,30.24,SE,142,0.0,0.0,94,0.01,,---,0.01,VWS V15.00,2017-10-21 12:07:00,
2017-10-21 08:12:00,51.3,49.6,30.24,SE,142,0.0,0.0,94,0.01,,---,0.01,VWS V15.00,2017-10-21 12:12:00,
2017-10-21 08:17:00,51.3,49.6,30.25,SE,142,0.0,0.0,94,0.01,,---,0.01,VWS V15.00,2017-10-21 12:17:00,
2017-10-21 08:22:00,51.4,49.7,30.25,SE,142,0.0,0.0,94,0.01,,---,0.01,VWS V15.00,2017-10-21 12:22:00,
2017-10-21 08:27:00,51.5,49.8,30.25,SE,142,0.0,0.0,94,0.01,,---,0.01,VWS V15.00,2017-10-21 12:27:00,
2017-10-21 08:32:00,51.7,50.3,30.25,SE,142,0.0,0.0,95,0.01,,---,0.01,VWS V15.00,2017-10-21 12:32:00,
2017-10-21 08:37:00,52.2,51.1,30.25,SE,142,0.0,0.0,96,0.01,,---,0.01,VWS V15.00,2017-10-21 12:37:00,
2017-10-21 08:42:00,52.6,51.2,30.26,SE,142,0.0,1.0,95,0.01,,---,0.01,VWS V15.00,2017-10-21 12:42:00,
2017-10-21 08:47:00,52.9,51.5,30.26,SE,142,0.0,1.0,95,0.01,,---,0.01,VWS V15.00,2017-10-21 12:47:00,
2017-10-21 08:52:00,53.3,51.9,30.26,SE,142,0.0,1.0,95,0.01,,---,0.01,VWS V15.00,2017-10-21 12:52:00,
2017-10-21 08:57:00,53.6,51.9,30.26,SE,142,0.0,2.0,94,0.01,,---,0.01,VWS V15.00,2017-10-21 12:57:00,
2017-10-21 09:02:00,54.1,52.4,30.26,SE,142,0.0,2.0,94,0.01,,---,0.01,VWS V15.00,2017-10-21 13:02:00,
2017-10-21 09:07:00,54.6,52.6,30.26,West,281,1.0,2.0,93,0.00,,---,0.01,VWS V15.00,2017-10-21 13:07:00,
2017-10-21 09:12:00,55.2,52.9,30.27,West,281,1.0,2.0,92,0.00,,---,0.01,VWS V15.00,2017-10-21 13:12:00,
2017-10-21 09:17:00,55.8,53.2,30.27,West,281,0.0,2.0,91,0.00,,---,0.01,VWS V15.00,2017-10-21 13:17:00,
2017-10-21 09:22:00,56.4,53.5,30.27,West,281,0.0,2.0,90,0.00,,---,0.01,VWS V15.00,2017-10-21 13:22:00,
2017-10-21 09:27:00,57.3,53.8,30.27,South,186,0.0,2.0,88,0.00,,---,0.01,VWS V15.00,2017-10-21 13:27:00,
2017-10-21 09:32:00,58.0,54.2,30.27,South,184,0.0,2.0,87,0.00,,---,0.01,VWS V15.00,2017-10-21 13:32:00,
2017-10-21 09:37:00,58.5,54.0,30.27,South,184,0.0,0.0,85,0.00,,---,0.01,VWS V15.00,2017-10-21 13:37:00,
2017-10-21 09:42:00,58.8,54.3,30.28,South,184,0.0,0.0,85,0.00,,---,0.01,VWS V15.00,2017-10-21 13:42:00,
2017-10-21 09:47:00,58.9,54.1,30.28,South,184,0.0,0.0,84,0.00,,---,0.01,VWS V15.00,2017-10-21 13:47:00,
2017-10-21 09:52:00,59.1,54.0,30.28,SW,221,1.0,3.0,83,0.00,,---,0.01,VWS V15.00,2017-10-21 13:52:00,
2017-10-21 09:57:00,59.3,54.2,30.27,South,190,0.0,3.0,83,0.00,,---,0.01,VWS V15.00,2017-10-21 13:57:00,
2017-10-21 10:02:00,59.7,54.2,30.28,South,172,2.0,3.0,82,0.00,,---,0.01,VWS V15.00,2017-10-21 14:02:00,
2017-10-21 10:07:00,59.9,54.1,30.28,South,172,0.0,0.0,81,0.00,,---,0.01,VWS V15.00,2017-10-21 14:07:00,
2017-10-21 10:12:00,60.2,53.7,30.28,SE,130,1.0,4.0,79,0.00,,---,0.01,VWS V15.00,2017-10-21 14:12:00,
2017-10-21 10:17:00,60.5,54.0,30.28,SE,131,2.0,4.0,79,0.00,,---,0.01,VWS V15.00,2017-10-21 14:17:00,
2017-10-21 10:22:00,60.9,54.7,30.28,WSW,256,1.0,4.0,80,0.00,,---,0.01,VWS V15.00,2017-10-21 14:22:00,
2017-10-21 10:27:00,61.2,54.6,30.28,SSW,194,0.0,4.0,79,0.00,,---,0.01,VWS V15.00,2017-10-21 14:27:00,
2017-10-21 10:32:00,61.6,54.3,30.28,SSW,198,1.0,4.0,77,0.00,,---,0.01,VWS V15.00,2017-10-21 14:32:00,
2017-10-21 10:37:00,62.0,54.4,30.28,WSW,247,1.0,2.0,76,0.00,,---,0.01,VWS V15.00,2017-10-21 14:37:00,
2017-10-21 10:42:00,62.5,54.5,30.28,SW,215,3.0,4.0,75,0.00,,---,0.01,VWS V15.00,2017-10-21 14:42:00,
2017-10-21 10:47:00,62.7,54.3,30.28,WSW,237,2.0,5.0,74,0.00,,---,0.01,VWS V15.00,2017-10-21 14:47:00,
2017-10-21 10:52:00,63.1,55.1,30.28,WSW,237,0.0,5.0,75,0.00,,---,0.01,VWS V15.00,2017-10-21 14:52:00,
2017-10-21 10:57:00,63.5,55.4,30.28,WSW,242,0.0,5.0,75,0.00,,---,0.01,VWS V15.00,2017-10-21 14:57:00,
2017-10-21 11:02:00,63.8,54.2,30.28,SW,215,0.0,5.0,71,0.00,,---,0.01,VWS V15.00,2017-10-21 15:02:00,
2017-10-21 11:07:00,64.2,55.0,30.29,SSW,195,1.0,4.0,72,0.00,,---,0.01,VWS V15.00,2017-10-21 15:07:00,
2017-10-21 11:12:00,64.6,54.6,30.29,West,267,3.0,5.0,70,0.00,,---,0.01,VWS V15.00,2017-10-21 15:12:00,
2017-10-21 11:17:00,65.0,54.2,30.28,SW,229,3.0,5.0,68,0.00,,---,0.01,VWS V15.00,2017-10-21 15:17:00,
2017-10-21 11:22:00,65.6,55.2,30.28,WSW,237,0.0,5.0,69,0.00,,---,0.01,VWS V15.00,2017-10-21 15:22:00,
2017-10-21 11:27:00,66.3,55.4,30.28,NE,56,1.0,5.0,68,0.00,,---,0.01,VWS V15.00,2017-10-21 15:27:00,
2017-10-21 11:32:00,66.8,54.2,30.28,WSW,238,3.0,5.0,64,0.00,,---,0.01,VWS V15.00,2017-10-21 15:32:00,
2017-10-21 11:37:00,67.1,55.4,30.28,SW,236,1.0,2.0,66,0.00,,---,0.01,VWS V15.00,2017-10-21 15:37:00,
2017-10-21 11:42:00,67.4,55.7,30.28,West,271,3.0,4.0,66,0.00,,---,0.01,VWS V15.00,2017-10-21 15:42:00,
2017-10-21 11:47:00,67.4,54.8,30.28,West,260,2.0,7.0,64,0.00,,---,0.01,VWS V15.00,2017-10-21 15:47:00,
2017-10-21 11:52:00,67.4,55.2,30.28,WSW,240,1.0,8.0,65,0.00,,---,0.01,VWS V15.00,2017-10-21 15:52:00,
2017-10-21 11:57:00,67.5,55.8,30.28,WSW,243,3.0,8.0,66,0.00,,---,0.01,VWS V15.00,2017-10-21 15:57:00,
2017-10-21 12:02:00,67.6,55.0,30.28,South,169,2.0,8.0,64,0.00,,---,0.01,VWS V15.00,2017-10-21 16:02:00,
2017-10-21 12:07:00,68.1,56.3,30.28,SSW,206,2.0,4.0,66,0.00,,---,0.01,VWS V15.00,2017-10-21 16:07:00,
2017-10-21 12:12:00,68.5,57.1,30.28,SSE,163,1.0,4.0,67,0.00,,---,0.01,VWS V15.00,2017-10-21 16:12:00,
2017-10-21 12:17:00,68.8,55.7,30.28,WSW,257,4.0,5.0,63,0.00,,---,0.01,VWS V15.00,2017-10-21 16:17:00,
2017-10-21 12:22:00,69.0,55.9,30.28,West,259,1.0,5.0,63,0.00,,---,0.01,VWS V15.00,2017-10-21 16:22:00,
2017-10-21 12:27:00,69.3,55.7,30.28,WSW,237,1.0,5.0,62,0.00,,---,0.01,VWS V15.00,2017-10-21 16:27:00,
2017-10-21 12:32:00,69.5,55.5,30.28,ESE,118,1.0,5.0,61,0.00,,---,0.01,VWS V15.00,2017-10-21 16:32:00,
2017-10-21 12:37:00,69.6,54.7,30.28,SSW,207,1.0,3.0,59,0.00,,---,0.01,VWS V15.00,2017-10-21 16:37:00,
2017-10-21 12:42:00,70.0,56.0,30.27,SW,229,2.0,3.0,61,0.00,,---,0.01,VWS V15.00,2017-10-21 16:42:00,
2017-10-21 12:47:00,70.0,55.0,30.28,SSW,205,1.0,4.0,59,0.00,,---,0.01,VWS V15.00,2017-10-21 16:47:00,
2017-10-21 12:52:00,70.1,55.6,30.28,SSE,159,1.0,7.0,60,0.00,,---,0.01,VWS V15.00,2017-10-21 16:52:00,
2017-10-21 12:57:00,70.1,55.1,30.28,West,261,3.0,7.0,59,0.00,,---,0.01,VWS V15.00,2017-10-21 16:57:00,
2017-10-21 13:02:00,70.1,54.7,30.27,SW,223,0.0,7.0,58,0.00,,---,0.01,VWS V15.00,2017-10-21 17:02:00,
2017-10-21 13:07:00,70.1,53.7,30.27,WSW,257,4.0,8.0,56,0.00,,---,0.01,VWS V15.00,2017-10-21 17:07:00,
2017-10-21 13:12:00,70.0,54.1,30.27,SSW,209,3.0,8.0,57,0.00,,---,0.01,VWS V15.00,2017-10-21 17:12:00,
2017-10-21 13:17:00,69.9,54.5,30.27,West,271,1.0,8.0,58,0.00,,---,0.01,VWS V15.00,2017-10-21 17:17:00,
2017-10-21 13:22:00,69.9,54.5,30.26,WSW,241,2.0,8.0,58,0.00,,---,0.01,VWS V15.00,2017-10-21 17:22:00,
2017-10-21 13:27:00,69.9,54.0,30.26,SW,220,2.0,8.0,57,0.00,,---,0.01,VWS V15.00,2017-10-21 17:27:00,
2017-10-21 13:32:00,70.0,54.6,30.26,SW,221,1.0,8.0,58,0.00,,---,0.01,VWS V15.00,2017-10-21 17:32:00,
2017-10-21 13:37:00,70.1,54.2,30.26,SW,223,1.0,3.0,57,0.00,,---,0.01,VWS V15.00,2017-10-21 17:37:00,
2017-10-21 13:42:00,70.3,54.4,30.25,West,266,0.0,4.0,57,0.00,,---,0.01,VWS V15.00,2017-10-21 17:42:00,
2017-10-21 13:47:00,70.5,55.0,30.26,West,267,1.0,4.0,58,0.00,,---,0.01,VWS V15.00,2017-10-21 17:47:00,
2017-10-21 13:52:00,70.6,54.2,30.25,SW,233,1.0,5.0,56,0.00,,---,0.01,VWS V15.00,2017-10-21 17:52:00,
2017-10-21 13:57:00,70.6,54.6,30.25,SW,226,0.0,5.0,57,0.00,,---,0.01,VWS V15.00,2017-10-21 17:57:00,
2017-10-21 14:02:00,70.7,55.2,30.25,SE,140,0.0,5.0,58,0.00,,---,0.01,VWS V15.00,2017-10-21 18:02:00,
2017-10-21 14:07:00,70.6,54.2,30.25,SSW,210,1.0,3.0,56,0.00,,---,0.01,VWS V15.00,2017-10-21 18:07:00,
2017-10-21 14:12:00,70.6,54.2,30.25,West,278,4.0,4.0,56,0.01,,---,0.02,VWS V15.00,2017-10-21 18:12:00,
2017-10-21 14:17:00,70.7,54.2,30.25,WSW,250,2.0,5.0,56,0.01,,---,0.02,VWS V15.00,2017-10-21 18:17:00,
2017-10-21 14:22:00,70.7,53.8,30.25,WSW,240,2.0,5.0,55,0.01,,---,0.02,VWS V15.00,2017-10-21 18:22:00,
2017-10-21 14:27:00,70.7,52.2,30.25,West,259,2.0,5.0,52,0.01,,---,0.02,VWS V15.00,2017-10-21 18:27:00,
2017-10-21 14:32:00,70.6,51.6,30.25,West,259,1.0,5.0,51,0.01,,---,0.02,VWS V15.00,2017-10-21 18:32:00,
2017-10-21 14:37:00,70.7,52.8,30.25,WSW,251,0.0,3.0,53,0.01,,---,0.02,VWS V15.00,2017-10-21 18:37:00,
2017-10-21 14:42:00,70.7,51.7,30.25,ESE,123,0.0,4.0,51,0.01,,---,0.02,VWS V15.00,2017-10-21 18:42:00,
2017-10-21 14:47:00,70.8,53.3,30.25,WSW,244,1.0,4.0,54,0.01,,---,0.02,VWS V15.00,2017-10-21 18:47:00,
2017-10-21 14:52:00,71.0,55.0,30.24,WSW,244,0.0,4.0,57,0.01,,---,0.02,VWS V15.00,2017-10-21 18:52:00,
2017-10-21 14:57:00,71.0,53.0,30.25,WSW,244,0.0,4.0,53,0.01,,---,0.02,VWS V15.00,2017-10-21 18:57:00,
2017-10-21 15:02:00,71.1,53.1,30.24,WSW,244,0.0,4.0,53,0.01,,---,0.02,VWS V15.00,2017-10-21 19:02:00,
2017-10-21 15:07:00,71.1,54.1,30.24,WSW,244,0.0,0.0,55,0.01,,---,0.02,VWS V15.00,2017-10-21 19:07:00,
2017-10-21 15:12:00,71.2,54.2,30.24,SSW,208,0.0,2.0,55,0.01,,---,0.02,VWS V15.00,2017-10-21 19:12:00,
2017-10-21 15:13:00,71.2,52.7,30.24,SSW,208,0.0,2.0,52,0.01,,---,0.02,VWS V15.00,2017-10-21 19:13:00,
2017-10-21 15:18:00,71.2,54.2,30.24,SSW,209,0.0,2.0,55,0.01,,---,0.02,VWS V15.00,2017-10-21 19:18:00,
2017-10-21 15:23:00,71.3,55.3,30.24,SSW,209,0.0,2.0,57,0.01,,---,0.02,VWS V15.00,2017-10-21 19:23:00,
2017-10-21 15:28:00,71.4,53.9,30.24,SSW,209,1.0,2.0,54,0.01,,---,0.02,VWS V15.00,2017-10-21 19:28:00,
2017-10-21 15:33:00,71.5,55.5,30.24,South,170,0.0,3.0,57,0.01,,---,0.02,VWS V15.00,2017-10-21 19:33:00,
2017-10-21 15:38:00,71.7,55.2,30.24,South,169,0.0,4.0,56,0.00,,---,0.02,VWS V15.00,2017-10-21 19:38:00,
2017-10-21 15:43:00,71.7,54.7,30.23,SE,130,2.0,4.0,55,0.00,,---,0.02,VWS V15.00,2017-10-21 19:43:00,
2017-10-21 15:48:00,71.7,54.7,30.24,SE,124,1.0,4.0,55,0.00,,---,0.02,VWS V15.00,2017-10-21 19:48:00,
2017-10-21 15:53:00,71.8,55.3,30.24,SE,124,0.0,4.0,56,0.00,,---,0.02,VWS V15.00,2017-10-21 19:53:00,
2017-10-21 15:58:00,71.8,54.8,30.24,SE,124,0.0,4.0,55,0.00,,---,0.02,VWS V15.00,2017-10-21 19:58:00,
2017-10-21 16:03:00,71.8,54.3,30.23,SE,124,0.0,4.0,54,0.00,,---,0.02,VWS V15.00,2017-10-21 20:03:00,
2017-10-21 16:08:00,71.9,55.9,30.23,SE,124,1.0,2.0,57,0.00,,---,0.02,VWS V15.00,2017-10-21 20:08:00,
2017-10-21 16:13:00,72.0,55.0,30.23,SE,133,1.0,3.0,55,0.00,,---,0.02,VWS V15.00,2017-10-21 20:13:00,
2017-10-21 16:18:00,72.2,54.7,30.23,SE,133,1.0,3.0,54,0.00,,---,0.02,VWS V15.00,2017-10-21 20:18:00,
2017-10-21 16:23:00,72.2,55.2,30.23,West,261,0.0,4.0,55,0.00,,---,0.02,VWS V15.00,2017-10-21 20:23:00,
2017-10-21 16:28:00,72.2,54.1,30.23,SE,131,1.0,4.0,53,0.00,,---,0.02,VWS V15.00,2017-10-21 20:28:00,
2017-10-21 16:33:00,72.2,54.7,30.23,SE,131,1.0,4.0,54,0.00,,---,0.02,VWS V15.00,2017-10-21 20:33:00,
2017-10-21 16:38:00,72.3,54.2,30.23,SE,140,1.0,3.0,53,0.00,,---,0.02,VWS V15.00,2017-10-21 20:38:00,
2017-10-21 16:43:00,72.4,53.8,30.23,SE,138,1.0,3.0,52,0.00,,---,0.02,VWS V15.00,2017-10-21 20:43:00,
2017-10-21 16:48:00,72.5,54.9,30.23,WSW,242,3.0,4.0,54,0.00,,---,0.02,VWS V15.00,2017-10-21 20:48:00,
2017-10-21 16:53:00,72.6,55.0,30.23,West,275,1.0,4.0,54,0.00,,---,0.02,VWS V15.00,2017-10-21 20:53:00,
2017-10-21 16:58:00,72.6,55.0,30.23,West,259,0.0,4.0,54,0.00,,---,0.02,VWS V15.00,2017-10-21 20:58:00,
2017-10-21 17:03:00,72.5,55.4,30.23,West,259,1.0,4.0,55,0.00,,---,0.02,VWS V15.00,2017-10-21 21:03:00,
2017-10-21 17:08:00,72.4,53.8,30.23,West,259,0.0,0.0,52,0.00,,---,0.02,VWS V15.00,2017-10-21 21:08:00,
2017-10-21 17:13:00,72.3,53.7,30.22,SSE,153,1.0,4.0,52,0.00,,---,0.02,VWS V15.00,2017-10-21 21:13:00,
2017-10-21 17:18:00,72.1,52.5,30.22,SSE,153,1.0,4.0,50,0.00,,---,0.02,VWS V15.00,2017-10-21 21:18:00,
2017-10-21 17:23:00,71.8,53.8,30.22,SSE,153,0.0,4.0,53,0.00,,---,0.02,VWS V15.00,2017-10-21 21:23:00,
2017-10-21 17:28:00,71.4,53.9,30.22,SSE,153,0.0,4.0,54,0.00,,---,0.02,VWS V15.00,2017-10-21 21:28:00,
2017-10-21 17:33:00,71.1,53.6,30.22,SSE,153,0.0,4.0,54,0.00,,---,0.02,VWS V15.00,2017-10-21 21:33:00,
2017-10-21 17:38:00,70.6,53.7,30.22,SSE,153,0.0,0.0,55,0.00,,---,0.02,VWS V15.00,2017-10-21 21:38:00,
2017-10-21 17:43:00,70.2,53.3,30.22,SSE,153,0.0,0.0,55,0.00,,---,0.02,VWS V15.00,2017-10-21 21:43:00,
2017-10-21 17:48:00,69.9,53.5,30.22,SSE,153,0.0,0.0,56,0.00,,---,0.02,VWS V15.00,2017-10-21 21:48:00,
2017-10-21 17:53:00,69.6,54.2,30.23,SSE,153,0.0,0.0,58,0.00,,---,0.02,VWS V15.00,2017-10-21 21:53:00,
2017-10-21 17:58:00,69.3,54.8,30.23,SSE,153,0.0,0.0,60,0.00,,---,0.02,VWS V15.00,2017-10-21 21:58:00,
2017-10-21 18:03:00,69.0,55.0,30.23,SSE,153,0.0,0.0,61,0.00,,---,0.02,VWS V15.00,2017-10-21 22:03:00,
2017-10-21 18:08:00,68.8,53.9,30.23,SSE,153,0.0,0.0,59,0.00,,---,0.02,VWS V15.00,2017-10-21 22:08:00,
2017-10-21 18:13:00,68.4,54.0,30.23,SSE,153,0.0,0.0,60,0.00,,---,0.02,VWS V15.00,2017-10-21 22:13:00,
2017-10-21 18:18:00,68.1,53.2,30.23,SSE,153,0.0,0.0,59,0.00,,---,0.02,VWS V15.00,2017-10-21 22:18:00,
2017-10-21 18:23:00,67.8,53.4,30.23,SSE,153,0.0,0.0,60,0.00,,---,0.02,VWS V15.00,2017-10-21 22:23:00,
2017-10-21 18:28:00,67.4,54.4,30.23,SSE,153,0.0,0.0,63,0.00,,---,0.02,VWS V15.00,2017-10-21 22:28:00,
2017-10-21 18:33:00,66.9,53.0,30.23,SSE,153,0.0,0.0,61,0.00,,---,0.02,VWS V15.00,2017-10-21 22:33:00,
2017-10-21 18:38:00,66.4,53.0,30.23,SSE,153,0.0,0.0,62,0.00,,---,0.02,VWS V15.00,2017-10-21 22:38:00,
2017-10-21 18:43:00,66.0,53.1,30.23,SSE,153,0.0,0.0,63,0.00,,---,0.02,VWS V15.00,2017-10-21 22:43:00,
2017-10-21 18:48:00,65.7,53.2,30.23,SSE,153,0.0,0.0,64,0.00,,---,0.02,VWS V15.00,2017-10-21 22:48:00,
2017-10-21 18:53:00,65.4,53.3,30.22,SSE,153,0.0,0.0,65,0.00,,---,0.02,VWS V15.00,2017-10-21 22:53:00,
2017-10-21 18:58:00,64.9,52.9,30.22,SSE,153,0.0,0.0,65,0.00,,---,0.02,VWS V15.00,2017-10-21 22:58:00,
2017-10-21 19:03:00,64.6,53.0,30.23,SSE,153,0.0,0.0,66,0.00,,---,0.02,VWS V15.00,2017-10-21 23:03:00,
2017-10-21 19:08:00,64.3,52.7,30.23,SSE,153,0.0,0.0,66,0.00,,---,0.02,VWS V15.00,2017-10-21 23:08:00,
2017-10-21 19:13:00,64.0,52.8,30.23,SSE,153,0.0,0.0,67,0.00,,---,0.02,VWS V15.00,2017-10-21 23:13:00,
2017-10-21 19:18:00,63.8,52.2,30.23,SSE,153,0.0,0.0,66,0.00,,---,0.02,VWS V15.00,2017-10-21 23:18:00,
2017-10-21 19:23:00,63.6,52.5,30.23,SSE,153,0.0,0.0,67,0.00,,---,0.02,VWS V15.00,2017-10-21 23:23:00,
2017-10-21 19:28:00,63.4,53.8,30.23,SSE,153,0.0,0.0,71,0.00,,---,0.02,VWS V15.00,2017-10-21 23:28:00,
2017-10-21 19:33:00,63.2,52.1,30.23,SSE,153,0.0,0.0,67,0.00,,---,0.02,VWS V15.00,2017-10-21 23:33:00,
2017-10-21 19:38:00,63.1,52.4,30.23,SSE,153,0.0,0.0,68,0.00,,---,0.02,VWS V15.00,2017-10-21 23:38:00,
2017-10-21 19:43:00,62.8,52.1,30.23,SSE,153,0.0,0.0,68,0.00,,---,0.02,VWS V15.00,2017-10-21 23:43:00,
2017-10-21 19:48:00,62.7,52.0,30.23,SSE,153,0.0,0.0,68,0.00,,---,0.02,VWS V15.00,2017-10-21 23:48:00,
2017-10-21 19:53:00,62.6,51.9,30.23,SSE,153,0.0,0.0,68,0.00,,---,0.02,VWS V15.00,2017-10-21 23:53:00,
2017-10-21 19:58:00,62.5,52.2,30.24,SSE,153,0.0,0.0,69,0.00,,---,0.02,VWS V15.00,2017-10-21 23:58:00,
2017-10-21 20:03:00,62.3,52.8,30.24,SSE,153,0.0,0.0,71,0.00,,---,0.02,VWS V15.00,2017-10-22 00:03:00,
2017-10-21 20:08:00,62.0,51.7,30.24,SSE,153,0.0,0.0,69,0.00,,---,0.02,VWS V15.00,2017-10-22 00:08:00,
2017-10-21 20:13:00,61.7,51.4,30.24,SSE,153,0.0,0.0,69,0.00,,---,0.02,VWS V15.00,2017-10-22 00:13:00,
2017-10-21 20:18:00,61.5,52.0,30.24,SSE,153,0.0,0.0,71,0.00,,---,0.02,VWS V15.00,2017-10-22 00:18:00,
2017-10-21 20:23:00,61.3,51.5,30.24,SSE,153,0.0,0.0,70,0.00,,---,0.02,VWS V15.00,2017-10-22 00:23:00,
2017-10-21 20:28:00,61.3,51.8,30.24,SSE,153,0.0,0.0,71,0.00,,---,0.02,VWS V15.00,2017-10-22 00:28:00,
2017-10-21 20:33:00,61.1,51.2,30.24,SSE,153,0.0,0.0,70,0.00,,---,0.02,VWS V15.00,2017-10-22 00:33:00,
2017-10-21 20:38:00,61.0,51.5,30.23,SSE,153,0.0,0.0,71,0.00,,---,0.02,VWS V15.00,2017-10-22 00:38:00,
2017-10-21 20:42:00,60.8,51.7,30.24,SSE,153,0.0,0.0,72,0.00,,---,0.02,VWS V15.00,2017-10-22 00:42:00,
2017-10-21 20:47:00,60.7,51.6,30.24,SSE,153,0.0,0.0,72,0.00,,---,0.02,VWS V15.00,2017-10-22 00:47:00,
2017-10-21 20:52:00,60.4,51.7,30.24,SSE,153,0.0,0.0,73,0.00,,---,0.02,VWS V15.00,2017-10-22 00:52:00,
2017-10-21 20:57:00,60.2,51.2,30.24,SSE,153,0.0,0.0,72,0.00,,---,0.02,VWS V15.00,2017-10-22 00:57:00,
2017-10-21 21:02:00,60.0,51.7,30.24,SSE,153,0.0,0.0,74,0.00,,---,0.02,VWS V15.00,2017-10-22 01:02:00,
2017-10-21 21:07:00,59.8,51.1,30.23,SSE,153,0.0,0.0,73,0.00,,---,0.02,VWS V15.00,2017-10-22 01:07:00,
2017-10-21 21:13:00,59.7,51.8,30.23,SSE,153,0.0,0.0,75,0.00,,---,0.02,VWS V15.00,2017-10-22 01:13:00,
2017-10-21 21:18:00,59.6,51.0,30.23,SSE,153,0.0,0.0,73,0.00,,---,0.02,VWS V15.00,2017-10-22 01:18:00,
2017-10-21 21:23:00,59.4,50.8,30.23,SSE,153,0.0,0.0,73,0.00,,---,0.02,VWS V15.00,2017-10-22 01:23:00,
2017-10-21 21:28:00,59.2,50.6,30.23,SSE,153,0.0,0.0,73,0.00,,---,0.02,VWS V15.00,2017-10-22 01:28:00,
2017-10-21 21:33:00,59.1,50.8,30.23,SSE,153,0.0,0.0,74,0.00,,---,0.02,VWS V15.00,2017-10-22 01:33:00,
2017-10-21 21:38:00,59.0,51.1,30.23,SSE,153,0.0,0.0,75,0.00,,---,0.02,VWS V15.00,2017-10-22 01:38:00,
2017-10-21 21:43:00,58.9,51.0,30.23,SSE,153,0.0,0.0,75,0.00,,---,0.02,VWS V15.00,2017-10-22 01:43:00,
2017-10-21 21:48:00,58.6,50.3,30.23,SSE,153,0.0,0.0,74,0.00,,---,0.02,VWS V15.00,2017-10-22 01:48:00,
2017-10-21 21:53:00,58.4,50.2,30.23,SSE,153,0.0,0.0,74,0.00,,---,0.02,VWS V15.00,2017-10-22 01:53:00,
2017-10-21 21:58:00,58.3,51.1,30.24,SSE,153,0.0,0.0,77,0.00,,---,0.02,VWS V15.00,2017-10-22 01:58:00,
2017-10-21 22:03:00,58.2,50.7,30.24,SSE,153,0.0,0.0,76,0.00,,---,0.02,VWS V15.00,2017-10-22 02:03:00,
2017-10-21 22:08:00,58.0,50.5,30.23,SSE,153,0.0,0.0,76,0.00,,---,0.02,VWS V15.00,2017-10-22 02:08:00,
2017-10-21 22:13:00,57.9,50.7,30.24,SSE,153,0.0,0.0,77,0.00,,---,0.02,VWS V15.00,2017-10-22 02:13:00,
2017-10-21 22:18:00,57.8,50.3,30.23,SSE,153,0.0,0.0,76,0.00,,---,0.02,VWS V15.00,2017-10-22 02:18:00,
2017-10-21 22:23:00,57.7,49.8,30.23,SSE,153,0.0,0.0,75,0.00,,---,0.02,VWS V15.00,2017-10-22 02:23:00,
2017-10-21 22:28:00,57.6,49.8,30.23,SSE,153,0.0,0.0,75,0.00,,---,0.02,VWS V15.00,2017-10-22 02:28:00,
2017-10-21 22:33:00,57.6,49.8,30.23,SSE,153,0.0,0.0,75,0.00,,---,0.02,VWS V15.00,2017-10-22 02:33:00,